User: anonymous   Login
Location: Unspecified
(0.0000°N, 0.0000°E)
Time: 17:16:32
(UTC+00:00)
Language:

Okean 3 - Orbit

View from above orbital plane
View from above orbital plane
View from above satellite
View from above satellite

Ground track
Ground track

The orbit data is extracted from the following two-line orbital elements,

1 21397U 91039A   19108.82429983 +.00000237 +00000-0 +20288-4 0  9994
2 21397 082.5240 221.2128 0018749 149.9059 210.3243 14.92789914488761
Epoch (UTC): 18 April 2019 19:46:59
Eccentricity: 0.0018749
inclination: 82.5240°
perigee height: 576 km
apogee height: 602 km
right ascension of ascending node: 221.2128°
argument of perigee: 149.9059°
revolutions per day: 14.92789914
mean anomaly at epoch: 210.3243°
orbit number at epoch: 48876

The dashed part of the orbit path shows where the satellite is in the earth's shadow,  

DLR